Regional Weather Roundup
Issued by NWS

Home | Current Version | Previous Version | Graphics & Text | Print | Product List | Glossary On
Versions: 1 2 3 4 5 6 7 8 9 10 11 12 13 14 15 16 17 18 19 20 21 22 23 24 25 26 27 28 29 30 31 32 33 34 35 36 37 38 39 40 41 42 43 44 45 46 47 48 49 50
000
ASUS43 KLMK 021710
RWRKY
KENTUCKY REGIONAL WEATHER ROUNDUP
NATIONAL WEATHER SERVICE LOUISVILLE KY
100 PM EDT TUE JUN 02 2015

NOTE "FAIR" INDICATES FEW OR NO CLOUDS BELOW 12,000 FEET
WITH NO SIGNIFICANT WEATHER AND/OR OBSTRUCTIONS TO VISIBILITY.

KYZ001>023-026-027-061>063-070>075-021800-
WESTERN AND SOUTH CENTRAL KENTUCKY

CITY           SKY/WX    TMP DP  RH WIND       PRES   REMARKS
PADUCAH        CLOUDY    65  56  72 NE5       30.11S
HENDERSON      CLOUDY    63  54  72 NE8       30.12S
OWENSBORO      CLOUDY    62  56  81 NE5       30.12F HAZE
HOPKINSVILLE   CLOUDY    63  57  82 N7        30.10F
BOWLING GREEN  CLOUDY    64  57  78 N7        30.11F
GLASGOW        CLOUDY    62  55  78 NE6       30.11F
$$

KYZ024-025-028>034-038-045-046-053-021800-
NORTH CENTRAL KENTUCKY

CITY           SKY/WX    TMP DP  RH WIND       PRES   REMARKS
LOUISVILLE/SDF CLOUDY    61  53  75 NE5       30.13F
LOUISVILLE/LOU CLOUDY    61  53  75 NE5       30.14F
FORT KNOX      CLOUDY    60  54  82 N6        30.12S
$$

KYZ035>037-039>044-047>052-055>060-089>105-021800-
NORTHEAST KENTUCKY

CITY           SKY/WX    TMP DP  RH WIND       PRES   REMARKS
LEXINGTON      CLOUDY    58  53  84 NE9       30.14S
COVINGTON      CLOUDY    58  50  75 N8        30.16S
FRANKFORT      CLOUDY    59  52  77 VRB6      30.13F
$$

KYZ054-064>069-076>088-106>120-021800-
SOUTHEAST KENTUCKY

CITY           SKY/WX    TMP DP  RH WIND       PRES   REMARKS
JACKSON        CLOUDY    59  55  87 CALM      30.12F
LONDON         CLOUDY    64  54  69 N7        30.11S
SOMERSET       CLOUDY    61  55  82 NE6       30.12R
MIDDLESBORO    CLOUDY    71  63  77 NE8       30.07F
MONTICELLO     CLOUDY    66  60  81 CALM      30.13S
$$



USA.gov is the U.S. government's official web portal to all federal, state and local government web resources and services.